OBJECT B, 65996

Orbit data source: Space-Track

You're viewing an Uncataloged Satellite

Recently launched and/or uncataloged satellites may have evolving metadata. Metadata may include but not limited to: Owner, Maufacturer, Bus, Motor, and Mission.

OBJECT B, 65996 is a satellite owned by Zhongguo Xingwang (CN) in LEO that was launched on Thu, 16 Oct 2025 UTC via a CHANG ZHENG 8A launch vehicle from the Wenchang Satellite Launch Center (WSC). Unknown objects in Earth's orbit typically refer to objects detected orbiting the Earth but have not yet been identified or cataloged. These objects could be anything from previously untracked satellites, spent rocket stages, debris from satellite collisions, or even natural meteoroids temporarily captured by Earth's gravity.

Loading next visibility...
Identifier
65996, 2025-231B
Orbit
LEO
Country
Flag of CNCN / PRC
Related business
Manufacturer
CAST
Mission
Operational spacecraft
Bus & Motor
GUOWANG C, Unknown motor
Mass
~800 kg wet, ~800 kg dry
Launch date (UTC)
2025-10-16 (2 months ago)
Launch vehicle
CHANG ZHENG 8A
Launch site
Wenchang Satellite Launch Center (WSC)
Object type
Unknown
Shape & HBR
Unknown shape, 1.1 m
Radar Cross Section
RCS unknown

Expand to show TLE details & history
Last TLE update: 17 hours ago

TLE from 17 hours ago
0 OBJECT B
1 65996U 25231B   25340.91165356 -.00000052  00000-0  97784-4 0  9995
2 65996  49.9974 149.7867 0000387 191.5844 168.5037 13.70206666  7241
Epoch: 2025-12-06T21:52Z
TLE epoch observation values (Epoch: 2025-12-06T21:52:46.867Z)
Latitude
-0.00002°
Longitude
105.65881°
Altitude
999.625 km
Speed
7.353 km/s
True Right ascension
09h 59m 08s
True Declination
0° 00' 00"
Sunlit
Object was in daylight at epoch
Visualization orbit readout
Latitude
Unknown
Longitude
Unknown
Altitude
Unknown
Speed
Unknown
Apparent Right ascension
Unknown
Apparent Declination
Unknown
Sunlit
N/A
Visualization observer readout
Local Sidereal Time
12:45:14
Azimuth
Unknown
Elevation
Unknown
Doppler factor
Unknown
Orbital elements
Apogee altitude
999.835 km
Perigee altitude
999.264 km
Semi-major axis
7,377.686 km
Eccentricity
0.00004
Inclination
49.9974°
RAAN
149.7867°
Arg. of periapsis
191.5844°
True anomaly
168.50458°
Mean anomaly
168.5037°
Eccentric anomaly
168.50414°
Mean motion
3.42502 °/min
Orbital period
105.11 mins
BSTAR
0.000097784
Loading maneuver chart data...
Computing Atmospheric mass density...
Loading historical data...
Loading historical data...
Loading historical data...
Loading historical data...
Loading historical data...
Loading historical data...
Loading historical data...

Documentation

Showing up to 5 results
|